TimeCST,TemperatureF,Dew PointF,Humidity,Sea Level PressureIn,VisibilityMPH,Wind Direction,Wind SpeedMPH,Gust SpeedMPH,PrecipitationIn,Events,Conditions,WindDirDegrees,DateUTC
12:15 AM,12.2,8.6,85,29.93,10.0,South,8.1,-,N/A,,Clear,170,2013-01-02 06:15:00
12:34 AM,12.2,8.6,85,29.93,10.0,South,8.1,-,N/A,,Clear,180,2013-01-02 06:34:00
12:55 AM,10.4,6.8,85,29.92,10.0,South,8.1,-,N/A,,Clear,170,2013-01-02 06:55:00
1:14 AM,8.6,6.8,92,29.92,10.0,SSW,4.6,-,N/A,,Clear,200,2013-01-02 07:14:00
1:35 AM,8.6,6.8,92,29.92,10.0,Calm,Calm,-,N/A,,Scattered Clouds,0,2013-01-02 07:35:00
1:55 AM,8.6,5.0,85,29.92,10.0,South,4.6,-,N/A,,Mostly Cloudy,190,2013-01-02 07:55:00
2:15 AM,10.4,6.8,85,29.91,10.0,South,3.5,-,N/A,,Overcast,180,2013-01-02 08:15:00
2:35 AM,10.4,8.6,92,29.92,10.0,South,3.5,-,N/A,,Overcast,180,2013-01-02 08:35:00
2:54 AM,12.2,8.6,85,29.91,10.0,South,3.5,-,N/A,,Overcast,190,2013-01-02 08:54:00
3:14 AM,14.0,10.4,86,29.91,10.0,South,4.6,-,N/A,,Overcast,190,2013-01-02 09:14:00
3:34 AM,15.8,12.2,86,29.91,10.0,SW,3.5,-,N/A,,Overcast,220,2013-01-02 09:34:00
3:54 AM,17.6,14.0,86,29.91,10.0,SSW,3.5,-,N/A,Snow,Light Snow,210,2013-01-02 09:54:00
4:15 AM,17.6,15.8,93,29.90,10.0,SSW,4.6,-,N/A,,Overcast,200,2013-01-02 10:15:00
4:35 AM,19.4,15.8,86,29.90,10.0,SSW,4.6,-,N/A,,Overcast,200,2013-01-02 10:35:00
4:54 AM,19.4,17.6,93,29.89,10.0,SW,5.8,-,N/A,Snow,Light Snow,220,2013-01-02 10:54:00
5:14 AM,21.2,17.6,86,29.89,10.0,SW,4.6,-,N/A,,Overcast,220,2013-01-02 11:14:00
5:34 AM,21.2,19.4,93,29.88,10.0,WSW,5.8,-,N/A,,Overcast,240,2013-01-02 11:34:00
6:14 AM,24.8,21.2,86,29.89,10.0,WSW,6.9,-,N/A,,Overcast,250,2013-01-02 12:14:00
6:34 AM,24.8,21.2,86,29.89,10.0,WSW,4.6,-,N/A,,Overcast,250,2013-01-02 12:34:00
6:55 AM,26.6,23.0,86,29.88,10.0,West,6.9,-,N/A,,Overcast,270,2013-01-02 12:55:00
7:15 AM,26.6,24.8,93,29.88,10.0,West,10.4,-,N/A,,Overcast,270,2013-01-02 13:15:00
7:35 AM,28.4,24.8,86,29.88,10.0,West,12.7,-,N/A,,Overcast,280,2013-01-02 13:35:00
7:54 AM,28.4,24.8,86,29.89,10.0,West,11.5,-,N/A,,Overcast,280,2013-01-02 13:54:00
8:14 AM,28.4,24.8,86,29.89,10.0,West,16.1,-,N/A,,Overcast,280,2013-01-02 14:14:00
8:34 AM,28.4,24.8,86,29.89,10.0,WNW,12.7,18.4,N/A,,Overcast,290,2013-01-02 14:34:00
9:15 AM,28.4,23.0,80,29.91,10.0,WNW,15.0,19.6,N/A,,Overcast,300,2013-01-02 15:15:00
9:35 AM,28.4,23.0,80,29.92,10.0,WNW,9.2,-,N/A,,Overcast,300,2013-01-02 15:35:00
9:55 AM,28.4,24.8,86,29.92,10.0,WNW,11.5,-,N/A,,Overcast,290,2013-01-02 15:55:00
10:15 AM,28.4,24.8,86,29.93,10.0,WNW,8.1,-,N/A,,Overcast,290,2013-01-02 16:15:00
10:34 AM,28.4,24.8,86,29.93,10.0,West,12.7,-,N/A,,Overcast,280,2013-01-02 16:34:00
10:54 AM,30.2,24.8,80,29.94,10.0,WNW,13.8,17.3,N/A,,Overcast,290,2013-01-02 16:54:00
11:15 AM,30.2,24.8,80,29.94,10.0,WNW,15.0,-,N/A,,Overcast,290,2013-01-02 17:15:00
11:34 AM,30.2,23.0,75,29.94,10.0,WNW,15.0,-,N/A,,Overcast,290,2013-01-02 17:34:00
11:55 AM,30.2,23.0,75,29.95,10.0,WNW,12.7,19.6,N/A,,Overcast,290,2013-01-02 17:55:00
12:15 PM,28.4,23.0,80,29.94,10.0,WNW,15.0,-,N/A,,Overcast,300,2013-01-02 18:15:00
12:35 PM,28.4,21.2,74,29.95,10.0,WNW,18.4,24.2,N/A,,Overcast,300,2013-01-02 18:35:00
12:54 PM,28.4,19.4,69,29.96,10.0,NW,18.4,23.0,N/A,,Mostly Cloudy,310,2013-01-02 18:54:00
1:14 PM,26.6,21.2,80,29.96,10.0,NW,19.6,25.3,N/A,,Mostly Cloudy,310,2013-01-02 19:14:00
1:34 PM,26.6,21.2,80,29.97,10.0,NW,19.6,24.2,N/A,,Overcast,310,2013-01-02 19:34:00
1:55 PM,26.6,23.0,86,29.98,10.0,NNW,15.0,-,N/A,,Overcast,330,2013-01-02 19:55:00
2:15 PM,26.6,23.0,86,29.98,10.0,NNW,15.0,23.0,N/A,,Mostly Cloudy,330,2013-01-02 20:15:00
2:34 PM,26.6,19.4,74,29.99,10.0,NW,17.3,-,N/A,,Mostly Cloudy,320,2013-01-02 20:34:00
2:54 PM,24.8,21.2,86,30.00,10.0,NW,13.8,-,N/A,,Overcast,310,2013-01-02 20:54:00
3:14 PM,24.8,21.2,86,30.01,10.0,NW,12.7,18.4,N/A,,Overcast,320,2013-01-02 21:14:00
3:34 PM,24.8,17.6,74,30.02,10.0,NNW,15.0,20.7,N/A,,Overcast,330,2013-01-02 21:34:00
3:54 PM,24.8,17.6,74,30.03,10.0,NW,13.8,-,N/A,,Overcast,320,2013-01-02 21:54:00
4:15 PM,23.0,15.8,74,30.04,10.0,NW,12.7,-,N/A,,Overcast,320,2013-01-02 22:15:00
4:34 PM,21.2,15.8,80,30.04,10.0,NW,13.8,-,N/A,,Overcast,320,2013-01-02 22:34:00
4:54 PM,21.2,15.8,80,30.05,10.0,NW,13.8,-,N/A,,Overcast,320,2013-01-02 22:54:00
5:15 PM,21.2,15.8,80,30.07,10.0,NNW,12.7,-,N/A,,Overcast,330,2013-01-02 23:15:00
5:34 PM,19.4,15.8,86,30.08,10.0,NNW,13.8,20.7,N/A,,Overcast,330,2013-01-02 23:34:00
5:55 PM,19.4,15.8,86,30.09,10.0,NW,15.0,-,N/A,,Overcast,320,2013-01-02 23:55:00
6:14 PM,17.6,14.0,86,30.09,10.0,NW,12.7,-,N/A,,Overcast,320,2013-01-03 00:14:00
6:34 PM,15.8,12.2,86,30.11,10.0,NW,9.2,-,N/A,,Mostly Cloudy,320,2013-01-03 00:34:00
7:14 PM,15.8,12.2,86,30.13,10.0,NNW,12.7,-,N/A,Snow,Light Snow,330,2013-01-03 01:14:00
7:34 PM,15.8,10.4,79,30.14,10.0,NNW,15.0,18.4,N/A,Snow,Light Snow,330,2013-01-03 01:34:00
7:54 PM,15.8,10.4,79,30.16,10.0,NNW,15.0,-,N/A,Snow,Light Snow,330,2013-01-03 01:54:00
8:14 PM,15.8,10.4,79,30.16,7.0,NNW,13.8,20.7,N/A,Snow,Light Snow,330,2013-01-03 02:14:00
8:34 PM,14.0,10.4,86,30.17,10.0,NNW,12.7,20.7,N/A,Snow,Light Snow,330,2013-01-03 02:34:00
8:54 PM,12.2,8.6,85,30.18,5.0,NNW,13.8,-,N/A,Snow,Light Snow,330,2013-01-03 02:54:00
9:14 PM,12.2,8.6,85,30.19,10.0,NNW,15.0,19.6,N/A,Snow,Light Snow,330,2013-01-03 03:14:00
9:34 PM,12.2,8.6,85,30.19,7.0,NNW,17.3,21.9,N/A,Snow,Light Snow,330,2013-01-03 03:34:00
9:55 PM,10.4,6.8,85,30.20,10.0,NW,13.8,20.7,N/A,,Overcast,320,2013-01-03 03:55:00
10:15 PM,10.4,6.8,85,30.21,10.0,NW,13.8,-,N/A,Snow,Light Snow,320,2013-01-03 04:15:00
10:35 PM,10.4,6.8,85,30.21,10.0,NW,9.2,18.4,N/A,Snow,Light Snow,310,2013-01-03 04:35:00
11:14 PM,8.6,3.2,79,30.23,10.0,WNW,9.2,-,N/A,,Scattered Clouds,300,2013-01-03 05:14:00
11:35 PM,8.6,3.2,79,30.24,10.0,WNW,10.4,-,N/A,,Mostly Cloudy,290,2013-01-03 05:35:00
11:55 PM,6.8,3.2,85,30.25,10.0,WNW,9.2,-,N/A,,Scattered Clouds,290,2013-01-03 05:55:00